SCP
1 1 1 1 1 1 1 1 1 1 1 1 0 0 0 0 0 0 0 0 0 0 0 0 0 0 0 0 0 0 0 1 1 1 1 1 1 1 1 1 1 1 1
1 1 1 1 1 1 1 1 1 1 1 1 0 0 0 0 0 0 0 0 0 0 0 0 0 0 0 1 0 1 1 1 1 1 1 1 1 1 1 1 1 1 1
1 1 1 1 1 1 1 1 2 1 1 1 0 0 0 0 0 0 0 0 0 0 0 0 1 1 1 1 1 1 1 1 1 1 1 1 1 1 1 1 1 1 1
1 1 1 1 2 2 2 2 2 2 1 1 1 0 0 0 0 0 0 0 0 0 0 0 0 1 1 1 1 1 1 1 1 1 1 1 1 1 1 0 0 1 1
1 1 1 1 2 2 2 2 2 2 1 1 1 0 0 0 0 0 0 0 0 0 0 0 0 0 1 1 1 1 1 1 1 1 1 1 1 1 1 1 1 1 1
1 1 1 1 1 2 2 2 2 2 2 1 1 1 0 0 0 0 0 0 0 0 0 0 0 0 0 1 1 1 1 1 1 1 1 1 1 1 1 1 1 1 1
1 1 1 1 1 1 1 2 2 2 2 2 1 1 0 0 0 0 0 0 0 0 0 0 0 0 0 0 1 1 1 1 1 1 1 1 1 1 1 1 1 1 1
1 1 1 1 1 1 1 1 2 2 2 2 1 1 0 0 0 0 0 0 0 0 0 0 0 0 0 0 0 1 1 1 1 1 1 1 1 1 1 1 1 1 1
1 1 1 1 1 1 1 1 1 2 2 2 1 1 0 0 0 0 0 0 0 0 0 0 0 0 0 0 0 0 0 1 1 1 1 1 1 1 1 1 1 1 1
1 1 1 1 0 0 1 1 1 1 2 2 1 1 0 0 0 0 0 0 0 0 0 0 0 0 0 0 0 0 0 1 1 1 1 1 1 1 1 1 1 1 1
1 1 1 0 0 0 0 0 1 1 1 1 1 1 0 0 0 0 0 0 0 0 0 0 0 0 0 0 0 0 0 0 1 1 1 1 1 1 1 1 1 1 1
1 1 0 0 0 0 0 0 0 1 1 1 1 1 0 0 0 0 0 0 0 0 0 0 0 0 0 0 0 0 0 0 0 1 1 1 1 1 1 1 1 1 1
1 0 0 0 0 0 0 0 0 0 0 1 1 1 0 0 0 0 0 0 0 0 0 0 0 0 0 0 0 0 0 0 0 0 1 1 1 1 1 1 1 1 1
0 0 0 0 0 0 0 0 0 0 0 0 0 1 1 0 0 0 0 0 0 0 0 0 0 0 0 0 0 0 0 0 0 0 1 1 1 1 1 1 1 1 1
0 0 0 0 0 0 0 0 0 0 0 0 0 0 1 0 0 0 0 0 0 0 0 0 0 0 0 0 0 0 0 0 0 0 0 1 1 0 1 1 0 0 0
0 0 0 0 0 0 0 0 0 0 0 0 0 0 0 0 0 0 0 0 0 0 0 0 0 0 0 0 0 0 0 0 0 0 0 0 0 0 0 0 0 0 0
0 0 0 0 0 0 0 0 0 0 0 0 0 0 0 0 0 0 0 0 0 0 0 0 0 0 0 0 0 0 0 0 0 0 0 0 0 0 0 0 0 0 0
0 0 0 0 0 0 0 0 0 0 0 0 0 0 0 0 0 0 0 0 0 0 0 0 0 0 0 0 0 0 0 0 0 0 0 0 0 0 0 0 0 0 0
0 0 0 0 0 0 0 0 0 0 0 0 0 0 0 0 0 0 1 0 0 0 0 0 0 0 0 0 0 0 0 0 0 0 0 0 0 0 0 0 0 0 0
0 0 0 0 0 0 0 0 0 0 0 0 0 0 0 0 0 0 0 0 0 0 0 0 0 0 0 0 0 0 0 0 0 0 0 0 0 0 0 0 0 0 0
0 0 0 0 0 0 0 0 0 0 0 0 0 0 0 0 0 0 0 0 0 0 0 0 0 0 0 0 0 0 0 0 0 0 0 0 0 0 0 0 0 0 0
0 0 0 0 0 0 0 0 0 0 0 0 0 0 0 0 0 0 0 0 0 0 0 0 0 0 0 0 0 0 0 0 0 0 0 0 0 0 0 0 0 0 0
0 0 0 0 0 0 0 0 0 0 0 0 0 0 0 0 0 0 0 0 0 0 0 0 0 0 0 0 0 0 0 0 0 0 0 0 0 0 0 0 0 0 0
0 0 0 0 0 0 0 0 0 0 0 0 0 0 0 0 0 0 0 0 0 0 0 0 0 0 0 0 0 0 0 0 0 0 0 0 0 0 0 0 0 0 0
0 0 0 0 0 0 0 0 0 0 0 0 0 0 0 0 0 0 0 0 0 0 0 0 0 0 0 0 0 0 0 0 0 0 0 0 0 0 0 0 0 0 0
0 0 0 0 0 0 0 0 0 0 0 0 0 0 0 0 0 0 0 0 0 0 0 0 0 0 0 0 0 0 0 0 0 0 0 0 0 0 0 0 0 0 0
Wind_Speed
4 4 3 4 4 3 4 4 4 4 4 4 4 4 3 3 3 3 2 6 6 6 6 5 5 5 6 6 6 6 6 6 6 6 7 7 7 8 8 8 8 8 8
4 4 4 4 4 4 4 5 5 5 4 4 4 4 4 4 3 3 3 4 6 6 6 6 6 6 6 6 7 6 7 6 7 7 7 8 8 8 9 9 9 9 9
5 4 4 4 4 4 4 3 4 4 4 4 4 4 4 4 4 4 4 3 3 5 6 6 6 6 7 7 7 7 7 7 7 8 8 9 9 10 10 10 9 9 10
5 4 4 4 4 4 4 4 4 4 4 3 3 4 4 4 4 4 3 3 3 3 4 6 6 7 7 8 8 8 8 8 8 9 9 10 10 11 11 11 11 11 11
4 4 3 4 4 4 4 4 3 3 3 3 3 3 3 3 4 4 4 4 4 3 3 4 5 6 6 7 9 9 9 9 9 10 11 11 12 13 13 13 12 12 12
4 4 3 3 4 3 3 3 3 3 2 3 3 3 2 3 3 3 4 4 4 4 3 3 3 4 6 7 9 10 10 10 10 10 11 11 12 13 13 14 13 13 13
3 3 3 3 3 3 4 4 3 3 2 1 1 1 1 2 3 3 3 3 3 4 3 4 3 3 3 6 7 9 10 11 11 11 11 12 12 13 13 14 13 13 14
2 3 3 3 2 2 3 3 3 2 1 1 2 1 1 2 2 3 2 3 3 2 3 4 4 4 3 2 4 8 9 12 13 13 13 14 14 14 14 14 14 14 15
2 2 3 2 2 2 3 3 4 4 3 2 2 2 2 3 1 2 3 3 3 2 3 3 4 4 4 3 4 6 9 11 14 15 15 15 15 15 15 16 16 16 16
1 2 3 3 2 2 2 2 2 3 4 3 1 1 1 1 2 2 2 2 3 3 4 3 3 4 5 4 5 7 9 11 14 16 16 16 16 16 16 16 17 17 17
2 2 3 3 2 2 2 2 2 2 2 3 2 2 1 1 1 2 3 3 2 3 4 4 4 4 5 5 4 7 9 11 14 16 17 17 16 16 16 17 17 17 17
1 2 2 2 2 2 2 2 2 2 2 3 2 2 3 2 2 2 3 3 4 4 4 4 4 4 4 4 6 9 10 11 14 16 17 17 17 16 16 17 17 16 16
1 1 1 2 2 1 2 2 2 1 2 2 2 2 2 2 2 2 2 3 4 3 3 3 4 4 4 4 5 9 9 11 13 15 17 17 16 16 16 16 16 16 15
1 1 1 1 1 1 1 2 1 1 1 2 2 2 2 1 1 2 2 2 4 4 3 4 3 4 4 4 7 9 7 11 13 14 16 16 15 15 15 15 14 14 13
1 1 1 1 1 1 2 2 1 1 1 1 1 1 1 1 1 1 2 2 3 5 6 4 3 4 4 5 7 6 7 11 13 13 14 13 13 13 13 13 13 12 12
1 1 1 2 2 1 2 2 1 1 1 1 1 1 2 2 2 2 2 2 3 4 6 4 4 4 5 5 8 7 7 12 12 13 13 12 12 13 13 12 12 11 10
1 2 2 2 2 1 1 2 1 1 1 1 1 1 2 2 2 2 2 2 3 3 6 5 4 4 5 6 6 6 7 7 7 12 13 12 12 12 12 11 11 10 10
1 1 2 2 2 1 1 2 2 1 2 1 1 1 2 1 2 2 2 2 3 3 5 8 5 4 5 6 6 7 6 6 6 10 12 12 12 11 11 10 8 8 9
1 1 2 1 1 1 1 1 1 1 1 2 2 2 2 2 2 2 2 2 2 3 4 5 6 5 5 4 5 6 6 6 6 7 9 11 11 11 10 9 8 8 7
1 1 1 1 1 1 1 1 1 1 1 1 1 2 2 3 3 3 3 3 3 3 4 5 5 5 5 4 4 5 6 5 5 4 7 8 9 10 10 9 8 7 7
1 1 1 1 1 1 1 1 1 1 1 1 1 2 3 3 3 3 3 3 3 3 4 4 5 5 5 4 4 4 6 6 5 3 5 5 5 5 5 6 6 6 7
1 1 1 1 1 0 1 1 1 1 2 2 2 2 2 2 3 4 5 5 5 5 5 4 5 5 6 5 5 5 5 5 5 2 3 5 3 4 3 3 5 6 6
1 1 1 1 1 0 1 1 1 1 1 1 1 2 2 2 3 3 5 6 6 7 7 5 6 6 6 6 6 5 5 6 6 3 3 5 3 4 4 4 7 6 6
0 0 1 1 1 0 0 1 1 0 0 1 1 2 2 3 3 3 3 4 5 5 5 5 6 6 6 5 5 6 6 6 5 2 1 4 3 4 4 4 6 6 5
1 0 0 0 0 1 1 1 2 0 0 1 2 2 2 3 5 6 3 4 5 4 5 6 7 7 7 7 5 3 3 3 4 3 1 2 3 4 4 3 3 4 4
1 1 0 0 0 1 1 1 1 0 1 1 2 2 3 4 6 6 3 3 5 5 4 5 5 6 5 5 5 3 3 3 3 3 2 2 2 2 3 3 2 2 3
Wind_Direction
188 190 190 187 187 185 186 186 186 189 195 199 202 201 210 217 215 211 216 210 209 214 218 221 230 241 252 259 262 264 268 271 274 277 281 284 285 286 288 287 285 282 279
190 190 189 189 191 190 191 191 190 192 199 200 210 210 211 215 214 209 213 214 216 216 220 225 235 245 253 260 265 267 269 272 276 278 281 285 286 287 289 288 284 282 279
190 189 189 193 196 191 186 186 190 190 200 206 215 217 215 217 214 210 209 212 219 221 223 228 234 241 251 259 265 268 271 273 275 277 279 281 284 284 286 286 287 285 282
184 183 188 196 196 188 185 186 187 191 203 207 217 222 218 216 214 210 206 208 209 214 224 235 245 249 254 262 269 271 272 275 277 278 279 280 280 281 282 282 280 280 281
184 182 191 195 186 185 189 194 193 191 199 209 219 221 218 216 215 208 204 208 209 208 217 236 245 254 262 266 272 276 274 275 277 277 277 279 279 278 278 279 276 275 276
188 182 188 191 184 181 187 191 189 194 197 206 225 230 229 223 215 209 207 211 213 215 217 227 234 252 261 270 274 279 280 280 281 281 280 281 281 280 278 277 275 275 274
186 185 184 182 185 188 192 186 183 187 196 172 165 262 271 233 216 219 217 211 217 219 219 226 230 239 257 266 274 284 286 285 283 282 282 282 282 283 282 279 276 275 274
183 182 169 175 181 182 185 183 179 176 181 163 155 150 253 279 254 240 224 214 218 224 232 236 232 233 241 246 273 283 285 288 286 283 281 280 280 280 281 280 278 276 274
176 162 156 164 170 170 184 188 185 183 186 195 175 161 173 222 271 264 235 220 217 231 248 247 240 241 245 249 259 274 284 289 285 284 283 281 281 280 280 279 277 274 273
158 152 144 148 160 164 168 183 184 183 178 189 189 187 196 177 191 257 267 239 236 243 244 255 255 251 248 249 259 279 283 283 283 284 285 284 283 282 282 282 281 276 272
138 141 143 149 158 162 159 157 159 166 179 187 188 177 186 242 210 209 260 269 266 248 244 245 244 256 261 258 257 275 285 284 284 285 286 286 286 286 287 285 283 279 275
139 132 135 144 157 165 169 171 162 166 190 192 197 195 192 196 209 216 249 268 265 259 252 244 242 249 260 265 272 288 285 284 284 284 284 285 285 285 286 287 286 285 280
165 156 141 143 150 158 158 150 149 169 191 191 207 213 213 215 206 225 247 267 273 277 260 246 239 250 269 271 276 287 282 285 286 286 284 284 287 289 288 287 285 285 286
191 165 153 142 130 135 138 135 141 171 171 181 209 218 214 224 228 231 233 256 279 277 260 258 257 248 265 271 279 285 275 285 286 287 287 288 292 293 292 291 287 285 284
136 121 136 128 123 137 143 145 148 169 162 174 194 210 221 224 234 248 243 234 247 274 274 260 269 262 265 265 279 272 272 282 285 286 287 289 291 292 293 295 290 285 280
126 137 134 123 128 131 128 128 144 165 167 199 196 195 224 226 234 241 243 252 248 254 271 272 266 275 276 283 289 278 272 288 283 283 282 284 285 286 288 290 288 286 281
123 129 135 135 134 131 130 132 146 158 165 205 239 231 248 238 240 250 245 246 253 254 270 281 269 280 280 281 288 278 274 266 271 281 281 281 282 283 284 287 285 284 281
126 142 140 134 132 133 133 140 145 156 165 189 215 222 241 237 241 252 250 258 264 264 268 283 285 282 277 273 276 279 284 279 270 282 281 282 283 283 283 282 283 283 284
86 96 103 121 130 124 115 130 161 186 200 206 209 216 235 232 243 253 261 265 272 283 277 281 287 281 280 279 284 286 286 277 281 284 283 284 284 284 282 280 279 281 283
95 95 100 107 110 115 133 160 167 185 203 212 219 231 238 235 237 244 256 260 269 276 277 281 285 291 288 290 286 294 301 290 286 285 287 288 288 284 280 278 277 279 282
103 113 108 97 94 116 139 134 174 182 196 222 248 256 258 259 256 262 268 266 265 267 275 281 287 297 295 302 294 291 292 295 288 268 285 279 276 269 271 269 274 280 279
93 105 122 133 127 85 63 89 136 174 205 219 246 275 283 272 281 288 288 287 276 270 273 273 278 288 287 289 285 291 294 301 294 288 288 282 270 273 276 268 284 285 284
73 85 136 140 143 95 39 53 69 135 204 244 268 280 292 296 295 284 290 294 288 284 275 268 272 276 279 284 284 281 288 289 280 285 297 277 272 277 281 278 283 282 285
167 153 164 170 176 245 16 45 46 60 338 303 287 276 279 289 293 301 304 301 288 285 285 275 271 276 278 279 267 263 269 283 286 275 278 280 291 289 295 283 274 280 282
161 185 190 170 192 286 351 17 22 40 327 301 303 308 301 296 306 315 310 302 297 294 301 298 296 299 306 306 301 289 295 300 299 288 306 297 295 305 300 290 291 291 290
178 181 217 210 227 272 328 340 350 129 298 305 312 305 302 305 312 315 298 296 301 302 312 314 314 318 312 309 314 278 268 274 290 285 289 309 290 315 311 299 301 300 299